EW4960 Weather Reports


Display with metric or nautical units.
time (UTC)temp
F
wind
direction
speed
MPH
gust
MPH
rain 1hr
in
rain 24hr
in
rain mn
in
humidity
%
barometer
mb
20260505034538 57 202 0.0 0.0 0.00 0.00 0.00 60 1009.4
20260505033033 57 109 0.0 0.0 0.00 0.00 0.00 59 1009.4
20260505031531 58 190 0.0 0.0 0.00 0.00 0.00 58 1009.2
20260505030043 58 166 0.0 0.0 0.00 0.00 0.00 56 1009.3
20260505024530 59 175 0.0 0.0 0.00 0.00 0.00 55 1009.3
20260505023039 59 179 0.0 0.0 0.00 0.00 0.00 54 1009.3
20260505021531 59 153 0.0 0.0 0.00 0.00 0.00 52 1009.4
20260505020028 60 148 0.0 0.0 0.00 0.00 0.00 52 1009.4
20260505014535 60 171 0.0 0.0 0.00 0.00 0.00 51 1009.4
20260505013027 61 140 0.0 0.0 0.00 0.00 0.00 50 1009.1
20260505011526 62 172 0.0 0.0 0.00 0.00 0.00 48 1008.9
20260505010026 62 180 0.0 0.0 0.00 0.00 0.00 48 1008.6
20260505004550 63 119 0.0 0.0 0.00 0.00 0.00 46 1008.3
20260505003024 63 190 0.0 0.0 0.00 0.00 0.00 46 1007.9
20260505001524 64 157 0.0 0.0 0.00 0.00 0.00 45 1007.5
20260505000025 65 134 0.0 0.0 0.00 0.00 0.00 43 1007.2
20260504234522 66 136 0.0 0.0 0.00 0.00 0.00 41 1006.9
20260504233024 67 215 0.0 0.0 0.00 0.00 0.00 39 1006.6
20260504231520 69 200 0.0 0.0 0.00 0.00 0.00 37 1006.3
20260504230020 71 215 0.0 0.0 0.00 0.00 0.00 34 1006.0
20260504224518 72 188 0.0 0.0 0.00 0.00 0.00 30 1005.7
20260504223018 72 166 0.0 0.0 0.00 0.00 0.00 30 1005.6
20260504221517 73 187 0.0 0.0 0.00 0.00 0.00 28 1005.5
20260504220016 73 180 0.0 0.0 0.00 0.00 0.00 29 1005.6
20260504214515 73 202 0.0 0.0 0.00 0.00 0.00 29 1005.6
20260504213031 73 224 0.0 0.0 0.00 0.00 0.00 28 1005.6
20260504211514 73 159 0.0 0.0 0.00 0.00 0.00 28 1005.5
20260504210012 74 229 0.0 0.0 0.00 0.00 0.00 28 1005.5
20260504204511 74 162 0.0 0.0 0.00 0.00 0.00 28 1005.5
20260504203007 73 197 0.0 0.0 0.00 0.00 0.00 27 1005.5
20260504201506 73 182 0.0 0.0 0.00 0.00 0.00 27 1005.7
20260504200006 73 189 0.0 0.0 0.00 0.00 0.00 27 1005.8
20260504194606 73 194 0.0 0.0 0.00 0.00 0.00 27 1005.8
20260504193059 73 184 0.0 0.0 0.00 0.00 0.00 27 1005.8
20260504191618 72 135 0.0 0.0 0.00 0.00 0.00 27 1005.8
20260504190058 71 169 0.0 0.0 0.00 0.00 0.00 28 1005.9
20260504184601 71 193 0.0 0.0 0.00 0.00 0.00 28 1006.2
20260504183049 71 225 0.0 0.0 0.00 0.00 0.00 29 1006.3
20260504181547 71 225 0.0 0.0 0.00 0.00 0.00 28 1006.5
20260504180045 71 205 0.0 0.0 0.00 0.00 0.00 28 1006.7
20260504174543 70 144 0.0 0.0 0.00 0.00 0.00 30 1006.6
20260504173040 69 225 0.0 0.0 0.00 0.00 0.00 31 1007.0
20260504171541 69 186 0.0 0.0 0.00 0.00 0.00 30 1006.8
20260504081516 47 219 0.0 0.0 0.00 0.00 0.00 58 1009.8
20260504044550 39 229 0.0 0.0 0.00 0.00 0.00 70 1009.6
20260504043050 40 229 0.0 0.0 0.00 0.00 0.00 69 1009.6
20260504041543 40 229 0.0 0.0 0.00 0.00 0.00 68 1009.6
20260504040039 40 229 0.0 0.0 0.00 0.00 0.00 69 1009.4